Wind_Speed
45 45 45 44 42 42 41 41 39 38 38 38 39 38 39 39 38 38 38 37 39 40 40 41 41 42 44 44 44 46 46 43 43 45 44 46 47 48
45 45 44 44 43 42 40 42 41 41 40 38 39 38 39 38 37 37 38 38 40 40 42 42 44 45 45 47 48 48 47 46 46 48 47 45 48 49
48 45 43 43 43 42 42 42 42 41 40 40 39 37 37 37 38 37 38 39 40 42 42 44 46 47 48 49 49 50 48 49 50 50 50 50 51 53
47 41 44 44 44 44 43 42 42 41 40 39 38 38 36 35 37 39 38 39 41 43 45 46 47 47 50 51 51 50 50 51 51 50 49 51 52 55
48 45 44 45 45 44 43 42 42 41 40 37 37 38 39 38 36 38 42 43 43 43 45 46 48 49 50 51 50 49 50 52 53 53 54 56 55 55
50 46 45 47 45 44 43 42 43 42 40 40 38 39 39 38 39 40 43 45 44 45 45 47 49 49 49 50 51 52 51 53 53 54 53 53 51 46
51 48 47 48 46 45 44 44 43 43 42 42 41 41 41 41 39 41 44 47 45 45 48 49 50 50 51 52 52 53 52 50 50 51 50 45 41 40
54 52 49 48 48 47 46 45 45 44 44 43 43 43 42 44 44 44 45 44 44 46 48 49 51 52 52 52 53 52 51 52 53 50 46 42 40 40
56 54 52 50 50 50 49 48 47 46 46 46 45 44 45 46 47 46 46 46 45 46 48 49 51 52 51 52 53 53 54 52 50 46 43 41 40 40
58 56 54 52 52 52 51 50 49 48 48 48 48 48 48 49 48 47 48 47 46 47 49 50 51 51 52 52 53 53 51 50 46 42 41 40 40 41
59 57 55 55 54 54 52 52 51 50 50 49 49 50 51 51 49 49 49 47 48 49 50 51 51 52 52 52 53 51 49 45 41 39 39 40 42 40
61 59 58 57 56 54 53 52 52 52 52 52 52 52 52 51 50 50 50 49 49 49 50 51 51 51 51 50 49 47 45 42 40 38 39 39 38 33
61 59 58 57 55 54 54 53 53 53 53 53 53 52 52 52 52 50 50 50 49 49 50 50 50 51 50 44 43 44 43 40 37 37 36 34 34 34
60 60 58 56 56 56 55 54 54 54 54 53 54 53 52 52 51 50 50 50 50 49 49 50 49 47 44 42 40 38 35 35 35 35 35 33 32 34
59 58 57 57 56 56 56 55 54 54 54 54 54 52 50 51 51 52 51 50 48 48 49 47 43 40 38 37 37 35 36 36 34 35 35 35 38 38
58 57 57 57 57 56 56 56 55 55 54 54 53 53 53 52 51 49 48 47 48 48 46 42 40 38 36 35 35 36 37 37 36 37 40 42 44 45
60 59 57 57 57 55 54 54 54 53 52 52 51 50 49 48 46 46 48 48 46 44 42 42 41 41 40 39 39 39 39 41 43 46 46 48 49 51
43 43 43 46 49 50 50 49 49 50 49 48 47 46 45 44 45 47 48 46 44 43 42 43 43 44 45 46 47 45 44 47 48 49 51 55 57 58
46 51 46 46 44 43 44 43 43 43 42 43 43 42 42 42 45 47 48 47 45 45 45 46 47 49 50 51 49 48 50 53 55 55 57 59 60 61
51 52 49 46 52 49 44 45 44 44 44 44 44 44 44 44 45 47 47 47 47 47 49 49 50 52 51 51 51 52 53 54 53 54 57 59 62 64
50 49 52 51 53 49 48 48 46 45 46 49 50 50 50 46 49 51 51 50 49 49 50 52 53 53 54 55 55 55 54 54 56 59 60 61 62 64
51 51 49 48 51 54 52 51 50 48 49 52 54 55 54 54 54 54 54 55 54 53 54 56 56 57 58 58 57 56 55 59 63 62 63 64 65 65
54 54 53 52 54 54 54 54 53 53 54 53 52 50 52 54 55 55 56 57 56 55 58 61 61 59 60 60 59 61 63 64 66 68 70 70 69 71
Wind_Direction
242 245 246 249 252 253 255 259 261 263 262 263 266 267 267 271 273 274 276 275 278 280 280 282 283 285 287 289 291 293 294 295 296 298 300 302 303 304
244 245 246 249 251 252 255 259 263 264 264 264 263 265 269 271 273 274 275 276 277 279 279 282 283 284 286 290 294 295 296 295 297 297 300 300 302 303
243 244 246 248 249 252 256 260 263 264 264 264 267 265 267 270 271 273 276 276 277 278 279 282 283 287 290 291 293 293 294 295 296 300 302 304 305 303
243 243 245 246 249 254 257 260 262 262 263 264 266 267 264 265 271 275 272 275 276 278 282 285 287 289 288 290 292 294 294 298 298 301 303 304 304 305
244 243 246 248 250 254 258 259 260 260 261 262 262 265 269 271 269 273 278 278 278 280 283 285 286 285 288 291 292 293 294 296 299 302 302 303 303 305
244 245 248 251 255 257 258 259 260 262 262 263 263 264 266 268 273 274 276 280 282 284 284 286 286 288 290 291 292 293 295 297 298 300 301 301 302 303
245 247 250 254 255 258 259 260 260 261 263 264 265 266 268 270 270 273 277 279 282 284 284 286 287 288 288 290 291 292 294 297 299 300 300 300 299 301
246 248 250 253 256 258 259 260 260 262 263 264 265 266 268 270 273 274 274 278 279 281 281 283 285 287 288 291 291 293 294 296 298 297 297 297 298 297
245 247 249 252 255 258 259 260 261 262 263 263 265 268 269 271 274 276 280 280 281 281 282 283 284 286 288 289 291 294 295 297 296 296 295 294 295 296
245 247 249 251 254 257 259 261 261 262 263 264 267 268 269 272 275 278 279 282 281 280 281 282 284 286 287 289 292 295 294 294 294 294 293 292 293 295
245 248 250 252 254 256 258 259 261 262 262 263 265 266 270 273 275 277 279 278 279 281 282 283 285 286 288 291 293 292 293 294 292 290 288 288 291 296
246 249 251 253 254 256 258 258 260 261 262 264 265 268 271 273 275 276 277 279 280 280 282 284 286 287 290 292 291 292 292 289 288 288 289 293 298 297
247 249 250 252 253 255 256 258 260 261 262 264 268 269 271 273 273 274 275 277 278 280 282 284 286 289 290 291 290 290 287 286 287 291 297 296 296 294
246 247 249 251 252 254 256 257 259 261 263 265 267 268 268 269 270 272 274 276 278 280 281 284 287 289 289 290 288 287 289 293 295 293 292 294 296 298
245 246 247 250 252 253 256 258 259 261 263 265 265 265 265 267 270 271 272 274 275 279 282 286 286 285 283 285 289 293 295 292 288 291 292 292 297 298
244 247 248 250 253 255 256 258 259 260 260 261 262 263 264 265 266 269 271 272 276 280 281 280 281 283 284 287 291 291 291 288 285 286 290 291 293 294
246 247 249 253 255 255 256 257 257 258 258 259 261 262 261 263 266 269 270 272 274 274 275 277 279 284 287 288 287 286 285 285 286 287 289 290 292 294
238 241 242 243 247 252 257 256 257 257 257 258 259 261 261 263 267 269 268 269 269 271 275 277 281 283 283 286 286 284 284 284 286 289 290 293 293 294
236 234 245 245 246 246 247 247 248 249 253 258 260 262 264 264 267 267 268 267 267 270 273 276 277 279 281 284 282 283 284 285 288 289 290 292 292 290
233 237 232 236 237 238 244 249 253 260 261 259 259 260 262 265 266 267 266 266 268 271 274 276 279 280 280 279 280 281 283 286 288 290 292 294 292 291
228 232 234 237 236 241 243 250 254 255 255 255 257 260 262 261 264 263 265 266 270 273 276 277 277 277 278 279 279 279 282 282 287 289 286 287 288 289
229 229 233 238 241 246 250 255 253 254 254 257 259 263 262 259 260 264 265 268 270 275 277 276 276 276 276 277 276 279 282 285 284 285 285 286 286 287
233 236 240 242 246 248 247 250 251 251 251 252 254 259 261 261 263 266 268 270 268 269 270 271 274 275 279 281 280 278 281 283 283 284 286 286 286 286
Height
5769 5774 5778 5781 5784 5787 5789 5791 5794 5796 5797 5798 5799 5798 5799 5798 5797 5796 5795 5795 5796 5795 5793 5792 5790 5788 5785 5783 5781 5778 5775 5773 5770 5766 5763 5759 5756 5752
5759 5763 5768 5771 5774 5777 5779 5780 5783 5786 5787 5788 5789 5789 5789 5789 5788 5787 5787 5787 5786 5786 5784 5782 5780 5778 5777 5774 5771 5768 5765 5762 5760 5757 5753 5749 5746 5741
5749 5753 5756 5760 5763 5766 5769 5771 5773 5775 5777 5777 5779 5781 5781 5780 5778 5779 5779 5777 5777 5775 5774 5772 5770 5768 5766 5764 5761 5758 5756 5752 5750 5746 5743 5739 5734 5730
5738 5743 5746 5749 5753 5756 5759 5761 5763 5765 5767 5768 5768 5770 5772 5772 5770 5769 5770 5769 5768 5765 5763 5762 5761 5758 5755 5753 5751 5748 5745 5742 5738 5736 5731 5727 5722 5717
5726 5732 5735 5739 5743 5746 5748 5750 5752 5754 5756 5758 5759 5759 5759 5760 5761 5760 5758 5757 5757 5757 5755 5752 5751 5748 5745 5743 5740 5738 5734 5730 5727 5723 5719 5715 5710 5705
5715 5721 5724 5728 5731 5735 5737 5739 5741 5743 5745 5747 5749 5750 5750 5751 5750 5749 5747 5746 5745 5744 5743 5741 5739 5737 5735 5732 5729 5726 5723 5720 5716 5712 5708 5703 5699 5694
5704 5709 5713 5717 5720 5723 5726 5728 5730 5732 5734 5736 5738 5739 5739 5740 5741 5739 5737 5734 5735 5734 5731 5730 5729 5726 5724 5721 5718 5715 5712 5709 5705 5701 5697 5692 5688 5685
5692 5697 5701 5705 5708 5711 5715 5717 5719 5720 5723 5724 5725 5727 5728 5728 5728 5728 5726 5726 5725 5722 5720 5720 5717 5715 5712 5710 5706 5703 5701 5698 5694 5690 5686 5682 5678 5675
5679 5684 5688 5693 5696 5699 5702 5704 5707 5709 5711 5712 5714 5715 5715 5715 5715 5714 5714 5713 5712 5711 5709 5708 5705 5703 5701 5698 5695 5692 5689 5686 5682 5678 5674 5671 5668 5665
5665 5671 5676 5680 5683 5686 5689 5692 5695 5697 5699 5700 5702 5702 5702 5702 5703 5702 5701 5700 5699 5698 5697 5696 5693 5691 5688 5686 5684 5680 5677 5674 5670 5667 5663 5660 5657 5654
5652 5658 5662 5667 5670 5672 5676 5679 5681 5684 5686 5687 5688 5689 5689 5690 5690 5689 5689 5687 5686 5686 5684 5683 5681 5679 5676 5674 5671 5668 5664 5661 5658 5655 5652 5649 5646 5642
5638 5643 5648 5652 5655 5658 5662 5665 5668 5670 5671 5672 5674 5675 5676 5676 5676 5676 5674 5674 5673 5672 5671 5670 5668 5666 5665 5662 5658 5656 5652 5649 5646 5643 5641 5638 5635 5632
5623 5628 5632 5637 5640 5644 5647 5651 5654 5655 5657 5658 5660 5662 5662 5662 5662 5662 5661 5660 5660 5659 5658 5657 5655 5653 5651 5649 5646 5643 5640 5638 5635 5633 5630 5628 5625 5623
5609 5612 5617 5621 5625 5629 5632 5636 5639 5641 5643 5644 5646 5647 5648 5648 5648 5648 5647 5647 5646 5646 5645 5644 5643 5641 5639 5637 5635 5632 5630 5627 5625 5623 5620 5618 5616 5613
5592 5597 5602 5606 5610 5614 5618 5621 5623 5626 5628 5630 5631 5632 5633 5633 5634 5633 5633 5633 5633 5633 5632 5631 5630 5628 5627 5626 5623 5621 5618 5616 5615 5613 5611 5608 5606 5603
5578 5583 5587 5591 5595 5599 5602 5605 5608 5610 5612 5614 5616 5617 5618 5619 5619 5620 5620 5620 5620 5620 5619 5618 5618 5617 5616 5614 5612 5610 5609 5607 5605 5603 5600 5597 5595 5591
5564 5569 5573 5576 5580 5583 5586 5590 5592 5595 5597 5599 5601 5602 5603 5604 5605 5606 5607 5607 5607 5607 5607 5606 5605 5605 5604 5603 5601 5599 5598 5596 5594 5592 5589 5585 5581 5578
5549 5554 5558 5563 5566 5569 5572 5575 5578 5580 5583 5585 5586 5588 5589 5591 5592 5592 5593 5594 5594 5594 5593 5593 5592 5592 5591 5590 5589 5586 5585 5582 5580 5578 5575 5571 5566 5564
5536 5541 5545 5549 5552 5555 5558 5561 5564 5567 5569 5571 5573 5575 5576 5577 5578 5579 5580 5580 5580 5580 5580 5580 5579 5578 5577 5576 5575 5573 5571 5568 5565 5562 5559 5555 5551 5547
5524 5528 5532 5536 5540 5543 5546 5549 5551 5553 5556 5558 5559 5562 5563 5564 5565 5565 5566 5566 5566 5566 5566 5565 5564 5564 5563 5561 5560 5558 5555 5552 5550 5547 5543 5540 5536 5530
5511 5515 5520 5524 5528 5530 5533 5536 5539 5541 5543 5545 5546 5548 5550 5551 5553 5552 5553 5553 5552 5552 5551 5550 5549 5548 5547 5546 5544 5540 5539 5537 5533 5530 5526 5522 5518 5514
5497 5501 5506 5510 5514 5517 5519 5522 5525 5527 5529 5532 5533 5535 5536 5537 5537 5537 5537 5537 5537 5536 5536 5534 5533 5532 5530 5529 5527 5525 5522 5520 5517 5513 5508 5504 5500 5496
5484 5488 5492 5495 5499 5502 5505 5508 5510 5513 5515 5517 5519 5520 5521 5522 5522 5522 5521 5521 5521 5521 5520 5519 5517 5516 5514 5512 5510 5508 5505 5502 5498 5495 5490 5486 5482 5477